Temp
14 14 14 14 14 14 14 14 14 14 14 14 14 14 14 14 14 14 13 13 13 13 13 13 13 13 13 12 12 12 12 12 12 12 12 12 12 12 12 12 12 12 12 12 12 12 12 12 12 12 13 13 13 13 13 13 13 13 13 13 13 13 13 12 12 12 12 12 11
14 14 14 14 14 14 14 14 14 13 13 13 13 13 13 13 13 13 13 13 13 13 13 13 12 12 12 12 12 12 11 12 12 12 12 12 12 12 12 12 12 12 12 11 12 12 12 12 12 12 12 12 12 12 12 12 12 12 13 13 12 12 12 12 12 12 12 11 11
14 14 14 14 14 14 14 13 13 13 13 13 13 13 13 13 13 12 12 12 12 12 12 12 11 11 11 11 11 11 11 11 11 11 11 11 11 11 11 11 11 11 11 11 11 11 11 11 11 11 11 12 12 12 12 12 12 12 12 12 12 12 12 12 12 12 11 11 11
14 14 14 14 14 13 13 13 13 13 13 12 12 12 12 12 12 12 11 11 11 11 11 11 10 10 10 10 10 10 10 10 10 10 10 10 10 10 10 10 10 10 10 10 10 10 10 10 11 11 11 11 11 12 12 12 12 12 12 12 12 12 12 12 12 12 11 11 11
14 14 14 13 13 13 13 13 13 12 12 12 12 11 11 11 11 11 10 10 10 10 10 10 10 10 10 10 10 10 10 10 10 10 10 10 10 10 10 10 10 10 10 10 10 10 10 10 10 10 10 11 11 11 11 11 11 12 12 12 12 11 11 12 12 11 11 11 11
13 13 13 13 13 13 12 12 12 12 12 11 11 11 11 10 10 10 10 9 9 9 9 9 9 9 9 9 9 9 9 9 9 9 9 9 9 9 9 9 9 9 9 9 9 9 9 9 9 10 10 10 10 10 11 11 11 11 11 11 11 11 11 11 11 11 11 11 11
12 12 12 12 12 12 12 11 11 11 11 10 10 10 10 10 9 9 9 9 9 9 9 9 9 9 9 9 9 9 9 9 9 9 9 9 9 9 9 9 9 9 9 9 9 9 9 9 9 9 9 9 10 10 10 10 10 11 11 11 11 11 11 11 11 11 11 11 11
11 11 11 11 11 11 11 10 10 10 10 9 9 9 9 9 9 9 9 9 9 9 9 9 9 9 9 9 9 9 9 9 9 9 9 9 9 9 9 9 9 9 9 9 9 9 9 9 9 9 9 9 9 9 9 10 10 10 10 10 11 11 11 11 11 11 11 11 11
10 10 10 10 10 10 10 9 9 9 9 9 9 9 8 8 8 8 9 9 9 8 8 8 8 8 8 8 8 8 8 8 8 8 8 8 8 8 8 8 8 8 8 8 8 8 8 8 8 9 9 9 9 9 9 9 9 9 10 10 10 10 10 10 10 11 11 11 11
9 9 9 9 9 9 9 8 8 8 8 8 8 8 8 8 8 8 8 8 8 8 8 7 7 7 7 7 7 7 7 6 6 6 7 7 7 7 7 7 7 7 8 8 8 8 8 8 8 8 8 8 8 9 9 9 9 9 9 9 10 10 10 10 10 10 10 10 11
9 9 8 8 8 8 8 8 8 8 8 8 7 7 7 7 7 7 7 7 7 7 7 6 6 6 6 6 5 5 5 5 5 5 5 5 5 6 6 6 6 6 6 7 7 7 7 7 7 8 8 8 8 8 8 8 9 9 9 9 9 9 9 10 10 10 10 10 10
9 9 8 8 8 8 8 8 8 7 7 7 7 7 7 7 7 6 6 6 6 6 5 5 5 5 5 5 4 4 4 4 4 4 4 4 5 5 5 5 5 5 6 6 6 6 6 7 7 7 7 7 7 8 8 8 8 8 8 9 9 9 9 9 9 10 10 10 10
10 9 9 8 8 8 8 8 7 7 7 6 6 6 6 6 6 5 5 5 5 5 4 4 4 4 4 4 4 4 4 4 4 4 4 4 4 4 4 5 5 5 5 5 6 6 6 6 6 6 6 7 7 7 7 7 8 8 8 8 8 8 9 9 9 9 9 9 9
9 9 9 8 8 8 7 7 7 6 6 5 5 5 5 5 5 4 4 4 4 4 4 4 4 3 3 3 4 4 4 4 4 4 4 4 4 4 4 4 5 5 5 5 5 5 5 5 5 5 6 6 6 6 7 7 7 7 7 8 8 8 8 8 8 9 9 9 9
8 8 8 8 7 7 6 6 6 5 5 5 4 4 4 4 4 4 4 4 4 4 4 4 3 3 3 3 3 4 4 4 4 4 4 4 4 4 4 4 5 5 5 5 5 5 5 5 5 5 5 5 5 6 6 6 6 6 7 7 7 7 7 8 8 8 8 8 8
6 6 6 6 6 6 6 6 6 5 5 4 4 4 3 3 3 3 4 4 4 4 4 3 3 3 3 3 3 3 3 4 4 4 4 4 4 4 4 5 5 5 5 5 5 5 5 5 5 5 5 5 5 5 5 6 6 6 6 6 6 6 6 7 7 7 7 7 7
5 5 4 4 5 5 6 6 5 5 4 4 3 3 3 3 3 3 3 4 4 4 3 3 3 3 3 3 3 3 3 3 4 4 4 4 4 4 4 4 5 5 5 5 5 5 5 5 5 5 5 5 5 5 5 5 5 5 5 5 5 5 5 5 5 6 6 6 6
3 3 3 4 5 5 5 5 5 4 4 3 3 3 2 3 3 3 3 3 3 3 3 3 3 3 3 3 3 3 3 4 4 4 4 4 4 4 4 4 4 4 5 5 5 5 5 5 4 5 5 5 5 5 5 5 4 4 4 4 4 4 4 4 4 5 5 5 5
2 3 3 4 4 5 4 4 4 3 3 2 2 2 2 2 2 3 3 3 3 3 3 3 3 3 3 3 3 3 3 4 4 4 4 4 4 4 4 4 4 4 4 5 5 5 4 4 4 4 4 4 4 4 4 4 4 4 4 4 4 4 4 4 4 4 4 4 4
2 3 3 3 4 4 4 3 3 2 2 2 2 2 2 2 2 2 3 3 3 3 3 3 3 3 3 3 3 3 3 3 4 4 4 4 4 4 4 4 4 4 4 4 4 4 4 4 3 3 3 4 4 4 4 3 3 3 3 3 3 3 3 4 4 4 4 4 4
2 2 2 3 3 3 3 2 2 1 1 2 2 2 2 2 2 2 2 3 3 3 3 3 3 3 3 3 3 3 3 3 3 3 3 3 3 3 3 3 3 3 4 3 3 3 3 3 3 3 3 3 3 3 3 3 3 3 3 3 3 3 3 3 3 3 3 3 3
1 2 2 3 3 2 2 1 1 1 1 1 2 2 2 2 2 2 2 2 3 3 3 3 3 3 3 3 3 3 3 3 3 3 3 3 3 3 3 3 3 3 3 3 3 3 3 3 3 3 3 3 3 3 3 2 2 2 2 2 2 2 2 2 2 3 3 3 3
1 2 2 2 1 1 1 1 1 1 1 1 1 1 2 2 2 2 2 3 3 3 3 3 3 3 3 3 3 3 3 3 3 3 3 3 3 3 3 3 3 3 3 3 3 3 2 2 2 2 2 2 2 2 2 2 2 2 2 1 1 1 1 2 2 2 2 2 2
1 1 1 1 1 1 1 1 1 1 1 1 1 1 2 2 2 2 2 3 3 3 3 3 3 2 2 2 2 2 2 2 2 2 3 3 3 3 3 3 3 3 3 2 2 2 2 2 2 2 2 1 1 1 1 2 1 1 1 1 1 1 1 1 1 1 1 1 1
1 1 1 0 0 0 1 1 1 1 1 1 1 1 1 2 2 2 2 3 3 3 3 3 3 3 2 2 2 2 2 2 2 2 2 2 2 2 2 2 3 3 2 2 2 2 1 1 2 2 1 1 1 1 1 1 1 1 0 0 0 0 0 0 0 0 0 0 1
0 0 0 0 0 0 0 0 1 1 1 1 1 1 1 1 2 2 2 2 3 3 3 3 3 2 2 2 2 2 2 1 1 2 2 2 2 2 2 2 2 2 2 2 2 2 1 1 1 1 1 1 0 0 0 0 0 -0 -0 -0 -0 -0 -0 -0 -0 -0 -0 0 0
0 -0 -0 -0 0 0 0 0 0 0 1 1 1 1 1 1 2 2 2 2 2 2 2 2 2 2 2 2 1 1 1 1 1 1 1 1 1 1 2 2 2 2 2 2 2 2 1 1 0 0 1 1 0 -0 -0 -1 -1 -1 -1 -1 -1 -1 -1 -1 -1 -1 -1 -0 -0
-0 -0 -0 -0 -0 -0 -0 -0 0 0 0 1 1 1 1 1 1 2 2 2 2 2 2 2 2 2 1 1 1 1 1 1 0 0 0 0 0 1 1 2 2 2 2 1 1 1 1 1 0 -0 0 0 -0 -1 -1 -1 -1 -1 -1 -1 -1 -1 -1 -1 -1 -1 -1 -1 -1
-1 -0 -0 -0 -0 -0 -0 -0 -0 0 0 0 1 1 1 1 1 1 2 2 2 2 2 2 1 1 1 1 0 0 1 0 0 0 0 -0 0 0 1 1 1 1 1 1 1 1 1 0 -0 -0 -0 -0 -1 -1 -1 -1 -1 -2 -2 -2 -2 -2 -2 -2 -2 -2 -2 -1 -1
-1 -1 -1 -1 -0 -0 -0 -0 -0 -0 0 0 0 0 1 1 1 1 1 1 1 1 1 1 1 0 0 -0 -0 -0 -0 0 0 0 0 0 0 0 0 1 1 1 1 1 1 1 0 0 -0 -1 -1 -1 -1 -1 -1 -2 -2 -2 -2 -2 -2 -2 -2 -2 -2 -2 -2 -2 -2
-1 -1 -1 -1 -1 -1 -1 -0 -0 -0 -0 0 0 0 0 0 1 1 1 1 1 1 1 1 1 0 -0 -0 -0 -1 -1 -0 -0 0 0 0 0 0 0 0 0 1 1 1 0 0 0 -0 -1 -1 -1 -1 -1 -1 -2 -2 -2 -2 -2 -2 -2 -2 -2 -2 -2 -2 -2 -2 -2
-1 -1 -1 -1 -1 -1 -1 -1 -0 -0 -0 -0 0 0 0 0 0 0 1 1 1 1 1 1 0 -0 -0 -1 -1 -1 -1 -1 -1 -1 -1 -0 -0 -0 0 0 0 0 0 1 0 -0 -0 -0 -1 -1 -1 -1 -1 -2 -2 -2 -2 -2 -3 -3 -3 -3 -3 -3 -3 -3 -3 -3 -3
-1 -1 -1 -1 -1 -1 -1 -0 -0 -0 -0 -0 -0 -0 -0 -0 -0 0 0 0 0 0 0 0 -0 -1 -1 -1 -1 -1 -1 -1 -1 -1 -1 -1 -1 -1 -0 -0 -0 -0 -0 0 0 -0 -1 -1 -1 -1 -2 -2 -2 -2 -2 -2 -3 -3 -3 -3 -3 -3 -3 -3 -3 -3 -3 -3 -3
-1 -1 -1 -1 -1 -1 -0 -0 -0 -0 -0 -0 -0 -0 -0 -0 -0 -0 -0 -0 -0 0 0 -0 -1 -1 -1 -1 -1 -1 -1 -1 -1 -1 -1 -1 -1 -1 -1 -1 -1 -1 -1 -0 -0 -0 -1 -1 -1 -2 -2 -2 -2 -2 -2 -3 -3 -3 -3 -3 -3 -3 -3 -3 -3 -3 -3 -3 -3
-1 -1 -1 -1 -1 -1 -0 -0 -0 -0 -0 -0 -1 -0 -0 -0 -0 -0 -1 -0 -0 -0 -0 -1 -1 -1 -1 -1 -1 -2 -2 -2 -2 -2 -2 -2 -2 -2 -2 -2 -2 -1 -1 -1 -0 -1 -1 -2 -2 -2 -2 -2 -2 -2 -2 -3 -3 -3 -3 -4 -4 -4 -4 -4 -4 -4 -4 -3 -3
-1 -1 -1 -1 -1 -1 -0 -0 -0 -0 -0 -1 -1 -1 -0 -0 -0 -0 -1 -1 -1 -0 -1 -1 -1 -1 -1 -2 -2 -2 -2 -2 -2 -2 -2 -2 -2 -2 -2 -2 -2 -2 -2 -1 -1 -1 -1 -1 -2 -2 -2 -2 -2 -2 -3 -3 -3 -4 -4 -4 -4 -4 -4 -4 -4 -4 -4 -4 -3
-1 -1 -1 -1 -1 -1 -1 -0 -0 -1 -1 -1 -1 -1 -0 -0 -0 -1 -1 -1 -1 -1 -1 -1 -1 -1 -1 -2 -2 -2 -2 -2 -2 -2 -3 -2 -2 -2 -2 -2 -2 -2 -2 -2 -1 -1 -1 -1 -2 -2 -2 -2 -3 -3 -3 -3 -4 -4 -4 -4 -4 -4 -5 -5 -4 -4 -4 -4 -4
-1 -1 -1 -1 -1 -1 -1 -1 -1 -1 -1 -1 -1 -1 -1 -1 -1 -1 -1 -1 -1 -1 -1 -1 -1 -1 -2 -2 -2 -3 -3 -3 -3 -3 -3 -3 -3 -3 -3 -3 -2 -2 -2 -2 -2 -1 -1 -1 -2 -2 -3 -3 -3 -3 -3 -4 -4 -4 -4 -4 -4 -5 -5 -5 -5 -5 -5 -4 -4
-1 -1 -1 -1 -1 -1 -1 -1 -1 -1 -1 -2 -1 -1 -1 -1 -1 -2 -2 -1 -1 -1 -1 -1 -1 -2 -2 -2 -2 -3 -3 -3 -3 -3 -3 -4 -3 -3 -3 -3 -3 -3 -3 -3 -2 -2 -2 -1 -2 -2 -3 -3 -3 -4 -4 -4 -4 -4 -4 -4 -4 -5 -5 -5 -5 -5 -5 -5 -5
-1 -1 -1 -1 -1 -1 -1 -1 -1 -1 -2 -2 -2 -1 -1 -1 -2 -2 -2 -2 -1 -1 -1 -2 -2 -2 -2 -2 -3 -3 -3 -3 -4 -4 -4 -4 -4 -4 -3 -3 -3 -3 -3 -3 -3 -2 -2 -2 -2 -2 -3 -3 -4 -4 -4 -4 -4 -4 -4 -4 -4 -5 -5 -5 -5 -5 -5 -5 -5
-2 -2 -2 -2 -2 -1 -1 -1 -1 -2 -2 -2 -2 -2 -2 -2 -2 -2 -2 -2 -2 -2 -2 -2 -2 -2 -3 -3 -3 -3 -3 -4 -4 -4 -4 -4 -4 -4 -4 -4 -4 -4 -3 -3 -3 -3 -2 -2 -2 -2 -3 -4 -4 -4 -4 -4 -4 -4 -4 -4 -5 -5 -5 -5 -5 -5 -5 -5 -5
Height
749 749 749 749 750 750 750 750 750 750 751 751 751 751 751 751 751 751 751 751 751 752 752 752 752 752 752 752 752 752 752 751 751 751 751 751 750 750 750 750 750 750 750 750 750 750 750 750 750 750 750 749 749 749 749 749 749 749 749 748 748 748 748 748 748 748 748 748 749
747 747 748 748 749 749 749 749 749 749 750 750 750 750 750 750 750 750 750 750 750 750 751 751 751 751 751 751 752 751 751 751 750 750 750 750 750 749 749 749 749 749 749 749 749 749 749 749 749 749 749 749 749 749 748 748 748 748 748 747 747 747 747 747 747 747 747 747 748
746 746 747 747 747 748 748 748 748 749 749 749 749 749 749 749 749 749 749 749 749 749 749 750 750 750 750 751 751 751 750 750 750 750 749 749 749 749 749 749 749 749 749 749 749 749 749 749 749 749 748 748 748 748 747 747 747 747 746 746 746 746 746 746 746 746 746 746 746
745 745 745 746 746 746 747 747 747 748 748 748 748 748 749 748 749 749 749 749 749 749 749 749 749 749 749 750 750 750 750 750 749 749 749 749 749 748 748 748 748 748 748 748 748 748 748 748 748 748 747 747 747 747 746 746 746 746 745 745 745 745 745 745 745 745 745 745 745
744 744 744 745 745 746 746 746 746 747 747 747 748 748 748 748 748 748 748 748 748 748 748 749 749 749 749 749 749 749 749 749 749 749 748 748 748 748 747 747 747 747 747 747 747 747 747 747 747 747 746 746 746 746 746 745 745 745 744 744 744 744 744 744 744 744 744 744 744
743 744 744 744 744 745 745 745 746 746 746 747 747 747 747 747 747 747 747 748 748 748 748 748 748 748 748 748 749 749 749 748 748 748 748 747 747 747 747 746 746 746 746 746 746 746 746 746 746 746 745 745 745 745 744 744 744 744 744 744 743 743 743 743 743 742 742 742 742
743 743 743 743 744 744 744 745 745 745 746 746 746 747 747 747 747 747 747 747 747 748 748 748 748 748 748 748 748 748 748 747 747 747 747 746 746 746 746 745 745 745 745 745 745 745 745 745 745 744 744 744 744 744 744 744 743 743 743 743 742 742 742 742 741 741 741 741 741
742 742 742 742 743 743 744 744 744 745 745 746 746 747 747 747 747 746 746 747 747 747 747 747 747 747 747 747 746 746 746 746 746 746 745 745 745 744 744 744 744 744 744 744 744 744 744 744 744 744 744 743 743 743 743 743 742 742 742 742 741 741 741 741 740 740 740 740 740
741 741 741 741 742 743 743 744 744 745 745 746 746 747 747 747 746 746 746 746 746 746 746 746 746 746 745 745 745 745 744 744 744 744 744 744 743 743 743 742 742 742 742 742 742 742 742 742 742 742 742 742 742 742 742 741 741 741 741 740 740 740 740 740 739 739 739 739 739
739 740 740 741 741 742 743 744 744 745 746 746 747 747 747 746 746 745 745 745 745 745 745 745 745 744 744 744 744 744 743 743 743 743 742 742 742 741 741 741 741 741 741 741 741 740 740 740 740 740 740 740 740 740 740 740 740 739 739 739 739 739 739 739 739 739 738 738 738
737 738 739 740 740 741 742 743 744 745 746 746 747 746 746 746 745 744 744 744 744 744 744 744 744 743 743 743 743 742 742 742 742 741 741 741 741 740 740 740 739 739 739 739 739 739 739 739 739 739 739 739 739 739 738 738 738 738 738 738 738 738 738 738 737 737 737 737 736
734 736 738 739 740 741 741 743 744 745 746 746 746 746 745 744 744 744 743 743 743 743 742 742 742 742 742 742 742 742 742 741 741 741 741 740 740 740 739 739 739 739 738 738 738 738 738 738 737 737 737 737 737 737 737 736 736 736 736 736 736 736 736 736 736 736 736 735 735
731 734 737 739 739 740 741 742 743 744 745 745 745 745 744 744 743 743 742 742 742 741 741 742 742 742 742 741 741 741 741 741 741 741 740 740 740 739 739 739 738 738 737 737 737 737 737 737 736 736 736 736 736 735 735 735 735 735 735 734 734 734 734 734 734 734 734 734 734
729 731 734 736 738 739 739 740 742 743 744 744 744 744 743 743 742 742 741 741 741 741 741 741 741 741 741 741 741 741 741 741 741 740 740 740 739 739 739 738 737 737 737 736 736 736 736 736 735 735 735 735 734 734 734 734 734 734 733 733 733 733 733 733 732 732 732 732 732
729 730 732 734 735 737 737 738 740 742 743 743 743 743 742 742 742 741 741 740 740 740 740 740 741 741 741 741 741 741 741 741 741 740 740 739 739 739 738 738 737 737 736 736 736 735 735 735 735 734 734 734 734 734 733 733 733 733 732 732 732 731 731 731 731 730 730 730 730
730 730 731 732 733 734 734 736 739 740 742 742 742 742 742 742 741 741 740 739 739 739 739 740 740 741 741 741 741 741 741 741 740 740 740 739 739 739 738 738 737 736 736 735 735 735 735 734 734 734 734 734 733 733 733 733 732 732 731 731 731 730 730 730 729 729 729 729 729
731 730 731 731 731 731 732 735 737 740 741 742 742 742 742 741 741 740 739 739 739 739 739 739 740 740 741 741 741 741 741 741 740 740 740 739 739 738 738 737 736 736 735 735 735 735 734 734 734 734 734 733 733 733 733 732 732 731 731 730 730 730 729 729 729 729 728 728 728
730 730 730 729 729 729 731 734 737 739 740 741 741 742 742 741 741 740 739 739 738 739 739 739 740 740 740 740 741 740 740 740 740 740 739 739 739 738 738 737 736 735 735 734 734 735 734 734 733 733 733 733 733 733 732 732 731 731 730 730 730 729 729 729 729 729 729 729 729
729 729 729 728 727 728 731 734 737 739 740 741 741 741 741 741 740 739 739 738 738 738 739 739 739 740 740 740 740 740 740 740 740 740 739 739 738 738 738 737 736 735 734 734 734 734 734 734 733 733 733 733 733 732 732 732 731 731 731 730 730 730 729 729 729 729 729 729 729
728 728 728 727 726 728 731 735 737 739 740 740 741 741 741 740 740 739 738 738 738 738 739 739 739 739 739 740 740 740 740 740 740 739 739 739 738 738 738 737 736 735 735 734 734 734 734 734 734 734 733 733 733 732 732 732 732 731 731 731 731 730 730 730 730 730 730 729 729
727 727 726 725 726 729 732 735 737 739 739 740 740 740 740 740 739 739 738 738 738 738 739 739 739 739 739 739 739 739 740 740 739 739 739 739 739 738 738 737 736 735 735 735 734 734 734 734 734 734 734 733 733 733 732 732 732 732 732 732 732 731 731 731 730 730 730 730 730
726 725 724 725 727 730 733 735 737 738 739 740 740 740 739 739 739 738 738 738 738 738 739 739 739 739 739 739 739 739 740 740 739 739 739 739 739 739 738 738 737 736 736 735 735 735 735 734 734 734 734 734 734 733 733 732 732 732 732 732 732 732 732 731 731 730 730 730 730
724 724 724 726 729 732 734 736 737 738 739 739 739 739 739 739 739 738 738 738 738 738 739 739 739 739 739 739 739 739 739 739 739 739 739 739 739 739 739 738 738 737 736 736 735 735 735 735 735 734 734 734 734 733 733 733 733 733 733 733 733 733 732 732 731 731 731 730 730
723 724 725 728 730 733 734 736 737 738 739 739 739 739 739 738 738 738 738 738 738 738 738 738 738 739 739 739 739 739 739 739 739 739 739 739 739 739 739 738 738 737 737 736 736 736 736 736 735 735 734 734 734 734 733 733 733 733 734 734 734 733 733 732 732 732 731 731 730
724 725 727 730 732 734 735 736 737 738 738 738 739 738 738 738 738 738 738 738 738 738 738 738 738 738 739 739 739 739 739 739 739 739 739 739 739 739 739 738 738 738 738 738 737 737 736 736 735 735 735 735 735 734 734 734 734 734 734 734 734 734 733 733 732 732 732 731 731
726 727 729 731 733 734 735 736 737 737 738 738 738 738 738 738 737 737 737 737 737 738 738 738 738 738 739 739 739 739 739 739 739 739 740 740 739 739 739 738 739 739 738 738 738 738 737 736 736 736 736 736 735 735 735 735 735 735 735 735 734 734 734 734 733 733 732 732 731
728 729 731 732 734 734 735 736 737 737 737 738 738 738 737 737 737 737 737 737 737 737 738 738 738 739 739 739 739 739 739 739 740 740 740 740 740 739 738 739 739 739 739 739 738 738 738 737 737 737 736 736 736 736 736 736 736 736 735 735 735 735 734 734 734 733 733 732 731
729 731 732 733 734 735 736 736 737 737 737 737 737 737 737 737 737 736 737 737 737 737 737 738 738 739 739 739 740 740 740 740 740 740 740 740 739 739 739 739 739 740 739 739 739 738 738 738 738 737 737 737 737 737 737 737 737 736 736 736 736 735 735 735 734 734 733 732 732
731 732 733 734 735 736 736 736 737 737 737 737 737 737 737 736 736 736 736 737 737 737 738 738 738 739 739 740 740 740 740 740 741 741 740 740 739 739 739 739 740 740 740 739 739 739 739 738 738 738 738 738 738 738 738 738 737 737 737 737 736 736 736 735 735 734 734 733 732
733 733 734 735 736 736 736 736 736 736 736 736 736 736 736 736 736 736 736 737 737 738 738 738 739 739 739 740 740 740 741 741 741 741 741 741 740 740 740 740 740 741 740 740 739 739 739 739 739 739 739 739 739 739 739 739 738 738 738 737 737 737 736 736 735 735 734 733 733
734 735 736 737 737 737 736 736 736 736 736 736 736 736 736 736 736 736 736 737 738 738 739 739 739 739 740 740 741 741 741 741 742 741 741 741 741 741 741 740 741 741 741 740 740 739 739 739 739 740 740 740 739 739 739 739 739 739 738 738 738 737 737 736 736 735 734 734 733
737 737 737 737 737 737 737 736 736 736 736 736 736 736 736 736 736 736 737 738 738 739 739 739 740 740 740 741 741 741 742 742 742 742 742 742 742 742 741 741 741 741 742 741 740 740 740 740 740 740 740 740 740 740 740 740 739 739 739 739 738 738 737 737 736 735 735 734 734
739 739 738 738 737 737 737 737 737 737 737 737 737 736 736 737 737 737 738 738 739 739 739 740 740 741 741 741 742 742 742 742 742 742 742 742 742 742 742 742 742 742 742 742 741 740 740 740 741 741 740 740 740 740 740 740 740 739 739 739 739 738 738 737 736 736 735 734 734
739 739 739 738 738 738 737 737 737 737 737 737 737 737 737 737 738 738 738 739 739 739 740 740 741 741 742 742 742 742 743 743 743 743 743 743 743 742 742 742 742 743 743 742 742 741 741 741 741 741 741 741 741 740 740 740 740 740 739 739 739 738 738 737 736 736 735 734 734
740 739 739 739 738 738 738 738 738 738 738 737 737 738 738 738 739 739 739 739 739 740 740 741 741 742 742 742 743 743 743 743 743 743 743 743 743 743 743 742 742 743 743 743 743 742 742 741 741 741 741 741 741 741 741 740 740 740 740 739 739 738 738 737 736 736 735 734 734
740 740 739 739 739 739 739 738 738 738 738 738 738 738 739 739 739 739 739 739 740 740 740 741 741 742 742 743 743 743 743 743 744 744 744 744 744 744 743 743 743 743 743 743 743 743 743 742 741 741 741 741 741 741 741 741 740 740 740 739 739 738 738 737 736 736 735 734 734
741 740 740 739 739 739 739 739 739 739 739 739 739 739 739 739 739 739 739 739 740 740 741 741 742 742 743 743 743 744 744 744 744 744 744 744 744 744 744 743 743 743 743 743 743 743 743 743 742 741 741 741 741 741 741 740 740 740 739 739 739 738 738 737 736 736 735 734 734
741 740 740 740 740 740 740 740 740 740 740 740 740 740 739 739 739 739 739 739 740 740 741 742 742 743 743 743 744 744 744 745 745 745 745 744 744 744 744 744 744 744 744 744 744 743 743 743 742 741 741 741 741 741 741 740 740 740 739 739 739 738 737 737 736 735 735 734 734
741 741 741 741 741 741 741 741 741 741 741 741 741 740 740 740 739 739 739 740 740 741 741 742 742 743 743 744 744 744 745 745 745 745 745 744 744 744 744 744 744 744 744 744 744 743 743 743 742 741 741 740 740 740 740 740 740 739 739 739 738 738 737 737 736 735 735 734 734
742 742 742 742 742 742 742 742 742 742 742 742 741 741 741 740 740 740 740 740 741 741 742 742 743 744 744 744 744 745 745 745 745 745 745 745 745 745 745 745 745 744 744 744 744 743 743 743 742 741 740 740 740 740 740 740 740 739 739 739 738 738 737 736 736 735 734 734 733
743 743 743 742 742 742 743 743 743 743 743 743 742 742 741 741 741 741 741 741 741 742 742 743 743 744 744 745 745 745 745 745 746 746 745 745 745 745 745 745 745 744 744 743 743 743 743 742 742 741 740 740 740 740 740 740 739 739 739 738 738 737 737 736 736 735 734 734 733
Wind_Speed
15 15 14 14 14 14 14 13 12 11 10 9 8 8 8 8 8 8 8 8 9 9 9 10 10 11 11 11 10 10 10 10 10 10 10 10 10 10 10 10 11 11 11 11 12 12 12 13 13 13 13 14 14 14 13 13 13 13 13 14 14 14 14 14 15 16 16 17 18
16 16 16 16 15 15 14 13 12 11 10 9 9 9 9 9 9 9 9 9 9 10 10 10 11 11 10 10 10 9 9 9 9 10 10 10 10 10 10 10 10 10 10 11 11 11 12 12 12 13 13 14 14 14 14 14 14 14 14 14 14 13 13 14 14 14 14 15 16
16 16 17 17 16 15 14 13 12 11 11 10 10 10 10 9 10 10 10 10 10 10 10 10 10 10 10 9 9 9 9 8 9 9 9 9 9 9 9 9 9 9 9 9 9 10 10 11 11 12 12 13 13 14 14 14 14 14 14 14 13 13 13 13 13 13 12 12 13
17 17 17 17 17 15 14 13 13 12 12 11 11 10 10 10 10 10 10 10 10 10 9 9 9 9 9 9 8 8 8 8 8 8 8 8 8 8 8 8 8 8 8 8 8 8 8 9 10 10 11 11 12 13 13 13 14 14 14 14 13 13 12 12 12 12 11 11 11
18 18 18 17 16 15 14 13 13 13 12 12 11 11 11 10 10 10 10 10 9 9 9 9 9 8 8 8 8 8 8 8 8 8 8 8 8 8 8 8 7 7 7 7 7 7 7 8 8 9 9 10 11 11 12 13 13 13 14 14 13 12 12 12 12 11 11 11 11
20 19 18 17 16 15 14 13 13 12 12 11 11 11 11 11 10 10 9 9 8 8 8 8 8 7 8 8 8 9 9 9 10 10 10 10 10 10 9 9 9 8 8 8 7 7 7 8 8 8 8 8 9 9 10 11 11 12 13 13 13 12 12 12 11 11 11 11 11
20 19 18 17 16 15 14 13 13 12 12 11 11 12 12 11 10 9 9 8 8 7 7 7 8 8 9 10 10 11 12 13 13 13 14 14 14 13 13 13 12 12 11 11 10 10 10 10 10 9 9 8 8 8 8 9 9 10 11 11 11 12 12 12 12 12 12 12 12
19 18 17 16 16 15 14 13 12 12 11 11 11 10 10 9 8 7 7 7 7 8 9 9 10 11 12 13 14 15 16 16 16 17 17 17 18 18 17 17 17 17 16 16 15 15 14 14 13 12 12 11 10 10 9 9 9 9 9 10 10 10 11 11 11 12 12 13 13
18 18 17 16 15 14 13 12 11 10 9 9 9 8 8 7 7 6 6 7 8 9 11 12 13 14 14 15 15 15 16 16 16 17 17 18 18 19 19 19 19 19 19 19 18 17 17 17 16 16 15 14 13 13 12 11 11 11 11 11 10 10 10 10 10 11 12 12 13
19 18 17 16 14 13 11 10 8 7 7 6 7 6 6 6 7 7 7 8 9 10 11 11 12 12 12 13 13 13 13 14 14 14 15 15 16 16 17 17 18 18 18 18 18 17 17 17 17 17 17 16 15 15 14 14 14 14 14 14 13 12 12 11 11 11 11 11 12
21 18 16 14 13 11 10 8 6 5 5 6 6 6 7 7 7 7 7 8 8 8 9 9 9 9 10 10 10 10 10 11 11 12 12 13 13 14 14 15 16 16 16 17 17 17 17 17 17 17 17 16 16 15 15 15 15 15 15 16 15 15 15 14 13 13 12 12 12
21 18 15 13 11 9 8 6 5 5 6 6 6 6 6 6 6 6 6 6 6 6 6 7 7 7 7 7 7 8 8 8 9 9 10 10 11 11 12 13 14 14 15 15 15 15 15 15 16 16 15 15 15 15 15 15 15 15 16 16 16 16 16 16 15 15 14 14 14
21 18 15 12 10 8 6 5 4 5 5 6 5 5 5 4 4 4 4 4 4 4 5 5 5 5 5 6 6 6 6 6 6 6 7 7 7 8 9 10 11 12 12 13 13 13 12 12 12 12 13 13 14 14 14 15 15 15 16 16 16 16 16 16 16 15 15 15 15
21 19 15 12 9 7 5 3 3 3 4 3 3 3 3 2 2 2 3 3 3 4 4 4 4 4 4 4 4 4 4 4 4 4 4 5 5 6 7 8 9 9 10 10 10 9 9 9 9 9 9 10 11 12 13 13 14 14 15 16 16 16 16 16 16 16 16 16 16
18 17 14 12 9 7 4 2 1 1 1 1 2 2 2 1 1 2 2 2 3 4 4 4 3 3 3 4 4 3 3 4 4 4 4 4 5 6 6 7 8 8 8 7 6 6 6 7 8 8 8 8 9 9 10 11 12 13 13 14 15 15 16 16 17 17 17 16 16
16 15 13 12 10 7 5 3 1 1 1 1 1 1 1 0 1 1 2 2 3 3 3 3 3 3 3 3 3 3 4 4 4 4 4 5 5 6 6 6 6 5 4 3 2 2 3 5 7 8 8 8 8 8 8 8 9 9 10 10 11 11 12 13 14 14 15 15 15
15 14 13 12 10 7 4 2 1 1 1 1 1 1 1 1 1 1 1 2 2 2 2 2 2 2 2 3 3 3 3 3 3 4 4 5 6 5 5 4 3 1 0 2 2 2 3 4 5 6 6 5 5 5 5 5 4 4 3 4 4 4 5 5 6 6 7 8 8
16 15 13 11 9 6 4 2 1 1 1 1 2 2 1 1 1 0 1 1 2 1 1 1 1 1 1 2 2 3 2 2 3 4 5 6 6 5 4 4 4 4 4 4 3 2 2 1 2 2 2 1 0 1 2 3 4 5 5 5 6 6 6 6 5 4 3 3 2
16 14 12 10 9 7 5 3 3 2 3 3 2 2 2 2 1 0 0 1 1 1 2 2 2 1 1 1 1 1 2 2 2 3 5 7 6 6 6 8 8 8 7 5 3 2 2 4 6 6 6 5 5 5 6 7 8 8 9 10 10 11 11 11 10 9 8 8 8
15 14 12 11 10 8 6 4 4 4 4 3 3 3 2 2 1 1 1 2 2 2 3 3 3 3 2 2 1 1 1 2 3 4 5 7 7 8 9 9 10 10 8 7 6 6 7 8 9 9 9 8 8 8 9 9 10 10 10 11 11 12 12 12 12 12 12 12 12
16 14 13 11 10 8 6 6 6 5 4 4 3 3 2 2 2 2 2 3 3 4 4 4 4 4 3 3 3 2 2 3 4 5 6 7 9 10 10 10 10 10 10 10 10 10 10 10 9 9 9 8 8 9 9 10 10 10 10 10 10 11 11 11 12 13 13 13 13
16 15 13 11 10 9 8 7 7 6 5 4 4 3 3 2 2 3 3 4 4 5 5 4 4 4 4 3 3 3 3 3 5 6 7 8 10 10 10 10 11 11 11 11 10 10 9 9 9 9 9 9 9 9 9 10 10 10 10 10 10 10 10 11 11 12 12 12 12
16 14 13 11 11 10 9 8 7 6 5 5 4 3 3 3 3 3 4 5 5 5 5 5 5 5 4 4 4 4 4 5 6 7 8 9 10 10 10 10 11 12 12 11 10 9 8 8 9 9 10 10 9 10 10 10 10 10 10 9 10 10 10 10 11 11 12 12 12
15 14 13 13 12 11 9 8 7 6 6 5 4 3 3 3 3 4 4 5 5 5 5 5 5 5 5 5 5 6 6 7 7 8 8 9 10 10 10 11 11 12 12 12 10 9 8 8 8 9 9 9 10 10 10 10 10 10 10 10 9 10 10 10 10 11 11 11 11
15 14 14 13 12 10 9 7 7 6 6 5 4 3 3 3 4 4 5 5 4 4 4 4 5 5 5 6 6 7 7 8 8 9 9 10 10 11 12 12 12 12 11 11 11 10 10 10 9 8 8 8 9 10 10 10 10 10 10 10 10 10 10 11 11 11 11 11 11
15 14 14 13 11 9 8 7 7 6 5 5 4 4 4 4 4 4 5 4 4 3 3 4 5 5 5 6 7 8 9 9 10 10 10 11 12 13 14 13 12 11 11 11 11 11 12 11 11 9 8 7 9 10 10 10 10 10 11 11 11 10 10 11 11 11 11 11 11
15 15 14 12 11 9 8 7 7 6 5 5 4 5 5 4 4 5 5 5 4 3 4 5 5 5 6 7 8 9 10 11 11 11 11 12 13 15 16 15 12 11 10 11 12 12 13 13 12 10 8 7 8 9 10 11 11 11 11 12 12 11 11 11 11 11 11 11 11
15 14 13 12 10 9 8 7 7 6 5 5 5 5 5 5 5 6 6 6 5 4 5 6 6 6 6 8 9 10 10 11 11 11 12 13 14 16 17 16 13 11 10 11 12 13 14 14 13 12 9 8 9 10 11 11 11 12 12 13 13 13 12 11 11 11 12 12 11
13 12 12 10 10 9 8 8 7 6 6 5 5 6 6 6 6 7 7 6 6 6 7 7 7 8 9 10 10 10 10 10 10 11 12 13 15 17 17 16 14 12 10 11 12 13 14 14 14 12 10 9 9 10 11 11 12 12 13 13 14 13 13 13 12 12 12 12 12
11 10 10 9 9 8 8 8 7 6 6 6 6 6 6 7 7 7 7 6 7 7 8 8 9 11 11 10 10 10 10 10 9 9 10 11 13 15 16 16 16 14 12 11 12 13 13 14 14 13 11 10 10 10 11 11 12 12 13 13 13 13 13 13 13 13 13 13 12
9 8 8 8 8 8 8 7 7 6 6 6 6 6 7 7 7 7 7 6 7 8 8 8 10 11 11 11 11 11 10 10 9 8 8 9 10 11 13 14 16 15 14 12 12 13 13 13 13 13 12 11 10 10 11 11 11 12 12 12 12 13 13 12 12 13 13 13 13
7 7 7 7 7 8 7 7 6 6 6 6 6 7 7 8 8 7 6 6 7 7 8 9 10 11 11 11 11 11 10 10 9 9 9 8 9 9 10 12 14 15 15 13 12 13 12 12 12 12 12 12 11 10 10 10 11 11 11 11 11 12 12 12 11 12 12 13 13
6 6 6 6 7 7 7 7 6 6 6 6 6 7 7 8 7 7 6 6 6 7 8 10 11 11 11 11 11 11 10 10 10 9 9 9 9 9 10 11 12 13 14 14 13 12 12 11 11 11 11 11 11 10 10 10 10 11 11 11 11 11 11 11 11 11 11 12 12
6 6 6 6 6 6 6 6 6 6 5 5 6 6 7 7 7 6 6 6 6 7 9 11 12 12 11 11 11 11 11 10 10 10 9 9 10 10 11 11 11 12 12 13 13 12 11 10 10 9 10 11 11 11 10 10 10 10 10 10 11 11 11 11 10 10 10 11 11
6 6 5 5 5 5 5 6 5 5 5 5 5 5 5 5 5 6 6 6 7 8 10 11 12 12 11 11 11 12 12 11 11 11 10 10 11 11 12 12 11 11 12 12 12 12 11 10 10 9 9 10 11 11 10 9 10 10 10 10 11 11 11 10 10 10 10 10 11
5 5 5 4 5 5 6 5 5 4 4 4 5 5 5 3 3 6 7 8 8 9 10 11 12 12 12 12 12 12 13 13 12 12 12 11 12 12 12 12 11 11 12 12 11 11 11 9 9 9 9 10 11 11 10 9 9 10 10 11 11 11 11 10 10 10 9 10 10
5 5 5 5 6 6 6 6 6 5 5 5 5 6 6 4 3 6 9 10 10 10 10 10 10 11 11 11 12 12 13 13 13 13 13 13 13 13 13 12 12 12 12 12 11 10 10 9 8 8 9 10 11 10 10 9 9 10 10 11 11 11 11 10 10 10 10 10 10
6 6 7 7 7 6 6 7 7 7 6 6 6 7 7 6 7 8 10 11 11 11 10 10 10 10 10 11 12 12 12 12 12 13 13 14 14 14 14 13 13 12 11 11 10 10 9 9 8 8 8 10 10 10 10 9 9 9 9 9 9 10 11 10 11 10 10 10 10
8 8 8 8 7 6 6 7 7 7 7 6 7 8 9 10 10 10 11 11 11 11 11 11 11 11 11 11 13 13 13 12 12 12 12 13 13 13 13 14 13 12 11 10 10 9 9 8 8 7 7 8 9 10 10 9 8 8 8 8 8 9 9 10 10 11 11 10 10
7 7 7 7 7 6 6 6 7 8 8 7 7 9 10 11 11 11 11 11 11 10 10 11 11 11 11 12 12 13 13 12 11 11 11 11 11 12 13 14 14 12 10 9 9 9 8 8 7 7 6 8 9 10 9 8 8 8 8 9 9 8 8 9 9 10 11 11 11
6 6 6 7 7 7 6 6 7 8 8 7 7 9 10 10 10 10 10 10 10 10 10 10 11 11 11 11 10 10 10 10 10 9 9 9 10 11 12 13 14 13 10 9 8 8 8 7 7 6 6 7 9 9 9 8 8 8 9 9 9 9 8 8 9 9 11 12 12
Wind_Direction
206 209 210 212 214 214 214 213 211 210 211 213 215 217 219 222 225 230 236 239 243 246 248 251 253 256 259 260 260 260 259 258 256 255 255 255 256 257 259 260 262 264 266 268 270 270 271 271 271 270 268 267 264 261 256 251 246 243 241 240 239 237 236 234 235 235 235 235 235
207 209 211 211 211 211 210 208 208 208 210 213 215 217 218 220 223 226 230 231 233 235 238 242 246 248 249 249 250 249 249 249 249 250 252 252 253 255 256 258 260 262 264 266 268 269 270 270 269 267 266 264 262 257 252 247 242 238 236 235 235 235 234 233 234 234 234 234 235
210 210 210 210 209 207 206 206 207 209 210 211 212 212 213 213 215 216 218 219 223 226 228 230 234 237 237 238 239 239 239 239 241 243 245 247 249 250 251 252 255 257 259 261 263 264 265 265 264 263 261 260 258 253 248 243 239 235 231 230 230 230 231 231 232 232 232 232 232
211 209 208 208 207 206 206 207 209 209 209 208 207 207 206 206 206 206 208 211 214 215 216 218 222 225 227 229 231 233 235 236 237 238 240 241 243 244 245 246 247 248 250 253 255 256 257 258 259 258 257 255 253 250 246 242 239 235 231 228 227 226 226 228 229 230 230 230 231
209 207 206 206 205 206 207 208 208 207 206 205 204 204 203 203 203 203 204 204 202 206 210 214 217 221 225 229 232 236 239 241 241 242 243 244 244 244 244 243 241 241 242 244 246 247 250 251 253 254 254 253 251 249 246 244 241 238 235 233 231 229 228 228 228 229 230 231 233
205 203 202 201 201 201 201 202 203 203 203 204 204 203 202 201 200 199 198 198 204 212 217 220 226 232 238 244 248 252 254 255 255 255 255 255 254 252 251 250 248 247 247 248 249 249 251 252 253 253 253 252 251 249 247 245 244 242 240 239 238 237 236 234 234 234 234 234 236
200 197 195 194 194 193 193 195 197 198 199 201 201 201 200 199 198 199 203 211 222 231 239 245 252 258 264 267 269 271 270 269 268 267 266 266 265 264 263 262 260 260 260 260 260 261 261 261 260 259 257 256 255 253 251 249 247 245 245 244 244 245 244 244 244 243 242 240 241
193 190 187 185 185 185 186 187 190 192 193 194 196 198 200 202 205 211 223 235 247 257 263 269 274 277 279 280 281 280 279 277 275 273 272 270 270 269 268 268 267 267 266 266 267 266 266 266 264 263 262 262 261 260 259 257 255 254 252 251 251 250 250 250 251 251 250 249 248
182 181 179 178 178 178 179 181 183 186 188 192 199 206 212 220 229 240 252 262 269 274 278 281 283 285 286 286 285 284 283 281 279 276 274 273 271 270 270 269 268 267 267 267 266 265 264 263 263 263 263 263 263 263 263 262 262 262 261 261 260 259 258 256 257 256 256 255 254
172 173 173 172 172 174 176 177 182 188 197 207 218 227 238 248 259 267 272 277 281 285 286 288 289 290 290 289 288 286 284 283 280 278 276 275 273 270 269 268 266 265 264 263 261 260 258 257 257 258 259 260 260 260 261 262 262 263 264 265 266 266 265 264 263 264 263 263 261
169 169 168 168 169 171 174 178 188 204 223 237 247 255 263 269 275 280 285 289 292 292 293 295 297 297 294 292 289 286 284 282 281 279 277 275 273 271 269 267 265 263 261 259 257 255 253 252 251 251 252 253 253 254 255 256 258 260 262 264 266 267 267 267 267 269 270 270 269
168 169 170 170 171 173 178 189 209 234 249 256 262 268 275 281 286 292 298 302 302 302 304 308 307 304 299 294 291 288 285 282 280 280 279 278 276 274 272 270 267 265 262 260 257 254 251 249 247 246 246 247 248 249 250 251 254 256 259 261 263 264 265 267 268 269 270 271 271
169 170 172 175 177 181 188 205 231 249 258 261 267 275 284 290 300 307 313 315 316 320 324 323 319 311 304 298 294 292 289 287 286 285 286 286 286 285 282 279 275 271 267 264 260 256 253 250 248 248 248 249 250 250 251 252 254 255 257 259 259 260 262 263 265 266 266 267 267
166 168 171 176 179 183 188 200 229 251 259 262 275 289 299 306 317 327 332 334 339 341 340 336 326 315 304 298 295 295 301 304 304 303 304 305 307 307 303 297 290 283 277 272 266 262 258 257 256 256 258 260 261 261 261 260 260 261 261 261 261 261 261 261 262 262 263 263 263
158 161 165 168 169 165 158 148 171 270 278 280 299 314 320 323 333 341 348 352 355 353 352 344 331 313 299 292 290 298 310 318 319 319 320 320 323 321 315 307 300 292 283 276 270 268 271 275 276 277 278 280 283 282 280 277 274 272 270 269 268 267 266 265 264 264 263 262 261
153 153 154 154 149 140 122 98 48 344 311 305 314 316 306 295 316 342 355 1 2 2 358 348 332 313 298 292 294 302 311 316 317 318 322 328 334 330 318 306 296 283 267 249 233 272 298 298 297 296 295 296 299 301 300 297 293 288 284 280 278 276 275 273 271 269 267 264 262
150 147 145 141 133 119 98 71 22 333 275 255 251 227 207 227 270 316 348 1 8 11 9 358 335 313 304 305 312 315 316 315 313 314 325 344 352 347 331 319 313 303 151 119 101 44 332 304 292 289 292 297 305 311 316 317 319 321 319 315 311 306 300 295 289 284 278 273 268
146 141 137 130 118 103 89 81 98 156 181 189 188 188 197 214 236 276 350 11 22 35 48 50 15 329 322 328 330 329 325 314 306 316 339 0 8 8 6 13 28 48 67 79 64 20 348 283 213 208 215 211 51 49 49 59 67 69 69 67 65 62 62 62 62 58 51 46 48
141 136 129 119 106 97 95 105 130 154 166 171 172 181 193 208 220 223 74 69 70 82 97 105 104 94 69 25 356 333 317 312 326 348 5 18 29 39 41 41 47 57 69 76 68 53 77 100 107 113 117 116 110 99 92 90 86 83 81 81 79 79 79 79 79 78 77 75 74
134 129 121 110 99 96 103 123 142 153 159 161 168 176 186 195 200 178 130 112 109 115 120 118 107 94 83 75 75 74 357 352 19 31 36 41 52 56 53 49 54 63 73 81 87 94 99 96 90 89 94 101 101 98 92 87 82 79 78 79 80 81 82 82 82 80 79 77 75
128 121 112 101 97 102 118 134 144 149 153 158 164 170 174 173 166 150 134 125 126 127 125 116 103 88 78 70 69 69 52 33 47 56 58 61 63 61 56 53 58 66 73 78 82 88 92 91 84 77 76 80 84 85 83 77 71 68 67 68 71 75 78 80 80 79 75 71 69
121 113 103 97 102 114 127 135 141 146 152 156 159 160 159 155 147 139 136 135 134 129 121 109 97 86 77 67 63 63 63 59 69 74 74 72 70 64 59 57 59 61 64 67 71 76 81 84 81 75 68 64 67 71 74 71 67 62 59 58 60 64 68 72 75 75 73 70 66
112 104 100 103 112 121 129 135 142 147 150 151 151 148 145 141 139 139 141 141 136 128 119 107 95 86 80 74 71 73 76 76 81 84 85 82 76 67 61 59 57 56 54 53 56 61 67 71 72 70 63 56 55 60 67 70 67 62 56 52 51 54 57 61 64 67 68 68 65
104 101 104 111 118 124 131 137 142 145 146 144 140 135 133 133 136 141 143 140 135 129 121 110 98 87 80 77 76 76 77 80 85 88 88 86 77 68 62 60 58 56 54 51 50 51 54 55 58 59 56 51 48 53 61 66 65 61 55 48 46 47 50 53 54 55 57 59 60
103 106 111 118 123 128 132 136 139 139 138 134 129 122 120 123 133 140 141 138 135 133 127 117 104 89 77 73 75 77 81 86 89 88 85 81 72 65 61 59 57 57 57 58 57 56 54 51 50 51 52 52 51 53 58 62 62 59 54 48 44 42 44 47 49 49 49 50 52
111 115 119 123 125 127 129 130 132 134 133 129 117 107 104 111 125 135 137 134 133 135 132 126 112 93 78 75 77 80 83 87 89 86 79 72 65 62 60 57 55 57 61 63 63 60 57 53 51 50 53 57 59 58 59 59 59 57 55 50 45 41 39 39 40 42 44 46 47
120 122 123 124 123 123 124 125 127 128 128 119 104 93 93 102 117 125 125 122 122 124 128 126 116 100 86 82 82 84 85 86 86 83 76 68 61 60 60 58 54 56 62 65 64 62 60 57 56 54 56 62 67 65 62 60 58 56 54 51 47 43 39 36 35 38 42 44 45
123 123 122 120 119 119 121 121 121 119 116 107 95 89 91 100 110 113 112 108 105 104 107 112 114 109 99 89 89 92 92 89 84 78 72 66 62 60 60 58 51 51 60 68 67 65 63 62 60 58 59 64 69 69 66 61 58 56 53 50 47 45 43 39 38 38 40 41 41
119 119 117 114 114 116 119 118 114 110 103 95 88 87 90 96 102 103 103 99 89 84 90 101 111 111 103 95 97 99 98 91 84 76 69 64 61 62 61 57 48 45 55 69 71 68 66 64 62 60 58 60 64 65 63 60 57 55 52 49 46 45 44 43 42 40 40 40 39
112 113 112 109 110 112 114 114 110 103 95 85 81 83 88 92 94 94 94 91 82 80 87 100 109 107 102 99 100 99 95 90 86 79 71 65 61 60 58 55 46 42 48 66 73 71 67 64 60 57 55 55 57 59 59 57 54 52 49 45 43 43 43 43 42 42 41 40 37
104 109 110 108 105 104 105 106 103 96 87 77 74 77 83 86 87 88 88 88 86 87 94 105 110 109 105 103 101 98 95 91 88 84 78 73 67 62 59 54 45 39 41 56 70 72 68 63 59 55 51 49 51 55 56 53 50 47 44 41 39 38 38 40 41 42 41 39 36
101 108 110 105 98 95 95 94 91 85 77 69 66 71 77 81 84 88 90 91 93 97 103 110 112 110 107 103 100 98 97 95 91 87 85 85 82 76 69 59 47 37 34 44 62 70 69 64 58 52 47 44 45 49 51 50 46 42 38 35 33 32 32 35 38 40 40 38 34
96 103 103 96 89 86 86 86 83 76 68 62 61 67 73 78 85 91 94 94 100 108 112 115 113 110 105 101 98 97 96 95 93 91 89 89 88 84 77 66 51 36 29 33 48 62 68 66 59 49 40 35 35 40 45 47 44 39 34 30 27 25 27 31 34 36 37 35 31
88 94 94 87 82 80 80 80 76 69 61 55 56 63 72 78 87 96 101 103 110 115 118 119 116 111 105 102 100 98 96 96 95 93 91 88 87 83 76 67 54 38 26 26 33 45 60 67 63 50 34 24 22 26 35 42 42 37 31 27 23 21 23 26 30 33 33 32 28
79 88 89 86 81 79 76 73 68 61 55 48 46 52 62 75 94 109 117 118 118 118 118 120 118 112 106 101 100 98 97 95 94 91 88 85 82 78 72 64 56 42 29 23 23 28 40 57 63 54 34 18 12 14 23 34 37 32 26 22 19 19 21 24 27 29 30 29 25
74 84 90 87 82 77 72 65 59 54 49 42 34 32 36 51 110 133 135 131 125 120 118 119 117 112 105 100 96 95 95 95 93 90 85 80 76 70 64 59 53 43 32 22 17 16 22 36 52 50 33 17 9 8 14 25 30 25 19 16 16 17 19 23 24 25 25 25 22
72 85 91 89 79 70 60 52 47 47 47 40 32 28 26 35 114 142 143 138 131 125 121 121 117 112 106 101 97 95 94 94 91 86 79 73 67 60 54 49 44 39 31 19 12 8 10 19 33 35 26 17 11 8 10 18 21 19 14 13 13 14 16 20 21 20 19 20 16
70 80 85 84 75 62 48 38 39 45 49 46 43 43 47 60 92 119 133 135 132 128 125 123 119 116 114 111 107 101 96 92 87 81 73 64 57 50 43 38 34 31 26 17 11 5 4 8 19 22 20 19 15 13 13 15 15 13 11 10 11 11 13 16 16 15 14 13 11
62 68 71 73 68 57 43 34 39 48 55 58 63 68 72 77 85 102 119 127 127 125 124 123 122 121 121 119 114 107 99 92 85 76 68 59 50 41 33 28 24 22 20 15 10 6 4 5 12 20 24 23 23 20 18 17 12 7 5 5 5 5 7 9 10 10 10 11 10
56 57 60 62 62 56 46 41 46 52 59 65 76 84 86 86 88 100 113 118 120 120 121 121 122 124 124 121 115 107 98 89 80 71 63 56 47 37 29 23 19 17 17 17 13 9 5 7 15 24 30 30 28 25 21 17 8 2 1 0 359 359 360 2 4 5 7 9 10
59 60 62 64 63 59 55 52 55 57 59 65 77 89 96 98 100 106 114 118 120 121 122 123 127 129 129 125 118 108 97 86 75 65 56 48 41 34 28 23 19 16 16 20 18 12 8 10 16 26 39 42 34 27 20 13 5 359 357 357 356 355 354 355 357 360 2 5 7